Location: Doverdale
(52.2833°N, 2.2000°W)
Time: 01:38:16
(UTC+00:00)

Cosmos 1408 - Pass Details

Date: 29 October 2020
Orbit: 470 x 492 km, 82.6° (Epoch: 27 November)

Event Time Altitude Azimuth Distance (km) Brightness Sun altitude
Rises 18:10:47 0° 352° (N) 2,558 6.3 -13.6°
Reaches altitude 10° 18:12:55 10° 356° (N) 1,677 5.3 -14.0°
Maximum altitude 18:16:32 58° 77° (ENE) 572 2.5 -14.5°
Drops below altitude 10° 18:20:10 10° 157° (SSE) 1,675 5.1 -15.1°
Sets 18:22:17 0° 162° (SSE) 2,555 6.1 -15.4°
